sat.trackr.live / text

‹ back to catalog

TURKSAT 4A

NORAD 39522 · 2014-007A

PAYLOAD ACTIVE UNKNOWN

§ Identity

Operator
Country
TURK
Launch date
2014-02-14
Launch site
TYMSC
Launch vehicle
Mass (kg)
RCS (m²)
7.77

Purposes: comms

External: N2YO · Heavens-Above · Gunter

§ Orbital elements

Epoch: 2026-05-25T03:56:38.608800Z

Period
1,436.12 min
Inclination
0.0453°
Eccentricity
0.0001877
Mean motion
1.00270391 rev/d
Perigee alt
35,779.1 km
Apogee alt
35,794.9 km
Semi-major
42,165.1 km
B*
0.0000e+0
RAAN
296.9857°
Arg perigee
36.2865°
Mean anomaly
10.6317°
Rev number
4,473

§ Raw data

TURKSAT 4A1 39522U 14007A   26145.16433575  .00000144  00000+0  00000+0 0  99922 39522   0.0453 296.9857 0001877  36.2865  10.6317  1.00270391 44733

JSON: /api/v1/satellites/39522 · /tle

For live sub-satellite position, see the globe view (requires WebGL).

§ Visibility from observer

Set your observer location to see the next 7 days of passes ≥ 10°. The values pass through the URL so the page stays shareable.

No JS? Fill the form by hand. The geolocation button needs JavaScript.